FW8622 Weather Reports


time (UTC)temp
C
wind
direction
speed
KPH
gust
KPH
rain 1hr
cm
rain 24hr
cm
rain mn
cm
humidity
%
barometer
mb
20260503021601 12 0 0.0 0.0 0.00 0.61 0.56 95 1012.7
20260503021045 12 0 0.0 0.0 0.00 0.61 0.56 95 1012.7
20260503020548 12 0 0.0 0.0 0.00 0.61 0.56 95 1012.7
20260503020057 12 0 0.0 0.0 0.00 0.61 0.56 95 1012.7
20260503015545 12 0 0.0 0.0 0.00 0.61 0.56 95 1012.7
20260503015045 12 0 0.0 0.0 0.00 0.61 0.56 95 1012.9
20260503014555 12 0 0.0 0.0 0.00 0.61 0.56 95 1012.8
20260503014047 12 0 0.0 1.6 0.00 0.61 0.56 95 1012.8
20260503013547 12 0 0.0 1.6 0.00 0.61 0.56 95 1012.7
20260503013055 12 0 0.0 1.6 0.00 0.61 0.56 95 1012.8
20260503012547 12 0 0.0 1.6 0.00 0.61 0.56 95 1012.7
20260503012044 12 0 0.0 1.6 0.00 0.61 0.56 95 1012.8
20260503011612 12 0 0.0 1.6 0.00 0.61 0.56 95 1012.8
20260503011045 12 0 0.0 1.6 0.00 0.61 0.56 95 1012.9
20260503010547 12 0 0.0 1.6 0.00 0.61 0.56 94 1013.1
20260503010057 12 0 0.0 3.2 0.00 0.61 0.56 94 1013.1
20260503005550 12 0 0.0 3.2 0.00 0.61 0.56 95 1013.0
20260503005045 12 0 0.0 3.2 0.00 0.61 0.56 95 1013.1
20260503004613 12 0 0.0 0.0 0.00 0.61 0.56 95 1013.2
20260503004044 12 0 0.0 1.6 0.00 0.61 0.56 94 1013.2
20260503003547 12 0 0.0 1.6 0.00 0.61 0.56 94 1013.2
20260503003056 12 0 0.0 1.6 0.00 0.61 0.56 94 1013.4
20260503002545 12 0 0.0 1.6 0.00 0.61 0.56 94 1013.4
20260503002046 12 0 0.0 1.6 0.03 0.61 0.56 94 1013.4
20260503001552 12 0 0.0 1.6 0.03 0.61 0.56 94 1013.4
20260503001046 12 0 0.0 0.0 0.05 0.61 0.56 94 1013.5
20260503000546 12 0 0.0 0.0 0.08 0.61 0.56 94 1013.6
20260503000105 12 0 0.0 0.0 0.10 0.61 0.56 94 1013.6
20260502235545 12 0 0.0 3.2 0.18 0.61 0.56 94 1013.6
20260502235045 12 0 0.0 3.2 0.18 0.61 0.56 94 1013.5
20260502234600 12 0 0.0 3.2 0.20 0.61 0.56 94 1013.4
20260502234049 12 0 0.0 3.2 0.28 0.61 0.56 93 1013.6
20260502233547 12 0 0.0 3.2 0.33 0.61 0.56 93 1013.7
20260502233052 13 0 0.0 3.2 0.36 0.58 0.56 93 1013.8
20260502232547 13 0 0.0 3.2 0.36 0.58 0.56 93 1014.0
20260502232048 13 57 0.0 3.2 0.46 0.56 0.53 93 1014.0
20260502231552 13 0 0.0 1.6 0.53 0.56 0.53 93 1014.3
20260502231049 13 0 0.0 1.6 0.51 0.56 0.51 93 1014.9
20260502230548 13 0 0.0 0.0 0.48 0.53 0.48 93 1015.3
20260502230047 13 0 0.0 1.6 0.46 0.48 0.46 92 1015.5
20260502225545 13 0 0.0 1.6 0.38 0.43 0.38 92 1015.4
20260502225047 13 0 0.0 0.0 0.36 0.41 0.36 92 1015.7
20260502224550 13 0 0.0 0.0 0.33 0.36 0.33 91 1015.8
20260502224047 13 0 0.0 1.6 0.33 0.33 0.28 92 1015.9
20260502223548 13 0 0.0 1.6 0.25 0.25 0.20 92 1016.1
20260502223050 13 0 0.0 3.2 0.20 0.20 0.18 91 1016.5
20260502222545 13 0 0.0 3.2 0.20 0.20 0.18 91 1016.5
20260502222048 13 0 0.0 3.2 0.10 0.10 0.08 91 1016.5
20260502221606 13 0 0.0 0.0 0.03 0.03 0.00 91 1016.3
20260502221045 13 0 0.0 0.0 0.03 0.03 0.00 90 1015.5
20260502220548 13 0 0.0 0.0 0.03 0.03 0.00 89 1015.1
20260502220100 13 0 0.0 0.0 0.03 0.03 0.00 89 1015.0
20260502215544 14 0 0.0 0.0 0.03 0.03 0.03 88 1015.2
20260502215045 14 0 0.0 0.0 0.03 0.03 0.03 86 1015.1
20260502214551 14 0 0.0 0.0 0.03 0.03 0.03 84 1015.2
20260502214045 14 0 0.0 0.0 0.00 0.00 0.00 83 1015.2
20260502213548 14 0 0.0 0.0 0.00 0.00 0.00 83 1015.4
20260502213051 14 0 0.0 0.0 0.00 0.00 0.00 84 1015.0
20260502212545 14 0 0.0 0.0 0.00 0.00 0.00 84 1014.9
20260502212048 14 0 0.0 0.0 0.00 0.00 0.00 85 1014.6
20260502211550 14 0 0.0 0.0 0.00 0.00 0.00 85 1014.6
20260502211048 14 0 0.0 0.0 0.00 0.00 0.00 86 1014.6
20260502210544 14 0 0.0 0.0 0.00 0.00 0.00 86 1014.6
20260502210107 14 0 0.0 0.0 0.00 0.00 0.00 86 1014.7
20260502205550 14 0 0.0 0.0 0.00 0.00 0.00 86 1014.8
20260502205044 14 0 0.0 0.0 0.00 0.00 0.00 86 1014.9
20260502204549 14 0 0.0 0.0 0.00 0.00 0.00 85 1014.9
20260502204048 15 0 0.0 0.0 0.00 0.00 0.00 85 1015.0
20260502203548 15 0 0.0 0.0 0.00 0.00 0.00 85 1015.1
20260502203048 15 0 0.0 0.0 0.00 0.00 0.00 85 1015.2
20260502202548 15 0 0.0 0.0 0.00 0.00 0.00 85 1015.3
20260502202052 15 0 0.0 0.0 0.00 0.00 0.00 84 1015.3
20260502201552 15 0 0.0 0.0 0.00 0.00 0.00 84 1015.3
20260502201045 15 0 0.0 0.0 0.00 0.00 0.00 83 1015.5
20260502200545 15 0 0.0 3.2 0.00 0.00 0.00 82 1015.6
20260502200114 15 0 0.0 3.2 0.00 0.00 0.00 81 1015.7
20260502195546 15 0 0.0 3.2 0.00 0.00 0.00 80 1015.8
20260502195044 15 0 0.0 3.2 0.00 0.00 0.00 78 1015.7
20260502194553 15 0 0.0 3.2 0.00 0.00 0.00 76 1015.8
20260502194044 15 0 0.0 3.2 0.00 0.00 0.00 73 1015.7
20260502193545 15 0 0.0 0.0 0.00 0.00 0.00 71 1015.7
20260502193051 15 0 0.0 0.0 0.00 0.00 0.00 70 1015.7
20260502192546 15 0 0.0 0.0 0.00 0.00 0.00 69 1015.7
20260502192044 16 0 0.0 0.0 0.00 0.00 0.00 68 1015.7
20260502191558 16 0 0.0 0.0 0.00 0.00 0.00 67 1015.8
20260502191050 16 0 0.0 0.0 0.00 0.00 0.00 66 1015.9
20260502190544 16 0 0.0 0.0 0.00 0.00 0.00 65 1015.7
20260502190051 16 0 0.0 1.6 0.00 0.00 0.00 63 1015.8
20260502185545 16 0 0.0 1.6 0.00 0.00 0.00 62 1015.7
20260502185046 17 0 0.0 1.6 0.00 0.00 0.00 62 1015.8
20260502184550 17 0 0.0 1.6 0.00 0.00 0.00 62 1015.8
20260502184048 17 0 0.0 3.2 0.00 0.00 0.00 62 1015.7
20260502183548 17 0 0.0 3.2 0.00 0.00 0.00 61 1015.8
20260502183052 17 0 0.0 0.0 0.00 0.00 0.00 61 1015.7
20260502182544 17 0 0.0 1.6 0.00 0.00 0.00 62 1015.7
20260502182045 17 0 0.0 1.6 0.00 0.00 0.00 62 1015.7
20260502181556 17 0 0.0 4.8 0.00 0.00 0.00 62 1015.8
20260502181044 17 0 0.0 4.8 0.00 0.00 0.00 62 1015.8
20260502180547 17 0 0.0 3.2 0.00 0.00 0.00 62 1015.7
20260502164044 21 0 0.0 4.8 0.00 0.00 0.00 56 1016.6
20260502163545 22 0 0.0 4.8 0.00 0.00 0.00 56 1016.7
20260502163100 21 0 0.0 4.8 0.00 0.00 0.00 57 1016.7
20260502162545 21 294 0.0 4.8 0.00 0.00 0.00 56 1016.6
20260502162048 22 0 0.0 4.8 0.00 0.00 0.00 57 1016.7
20260502161547 21 0 0.0 4.8 0.00 0.00 0.00 58 1016.7
20260502161047 21 319 0.0 6.4 0.00 0.00 0.00 57 1016.8
20260502160544 22 296 1.6 6.4 0.00 0.00 0.00 57 1016.9
20260502152045 22 0 1.6 11.3 0.00 0.00 0.00 61 1017.0
20260502151605 22 0 1.6 11.3 0.00 0.00 0.00 61 1017.1
20260502151047 22 0 0.0 8.0 0.00 0.00 0.00 60 1017.1
20260502150544 22 0 0.0 8.0 0.00 0.00 0.00 61 1017.1
20260502140118 22 0 0.0 6.4 0.00 0.00 0.00 65 1017.8
20260502130545 22 0 0.0 8.0 0.00 0.00 0.00 67 1018.0
20260502130103 22 301 1.6 8.0 0.00 0.00 0.00 66 1018.0
20260502123544 21 70 0.0 8.0 0.00 0.00 0.00 69 1018.5
20260502123054 21 0 0.0 8.0 0.00 0.00 0.00 69 1018.5
20260502122544 21 51 0.0 8.0 0.00 0.00 0.00 70 1018.6
20260502122045 20 74 0.0 17.7 0.00 0.00 0.00 71 1018.6
20260502121549 20 328 0.0 17.7 0.00 0.00 0.00 71 1018.7
20260502121046 20 0 1.6 17.7 0.00 0.00 0.00 69 1018.7
20260502120545 20 0 1.6 6.4 0.00 0.00 0.00 69 1018.8
20260502115544 21 311 1.6 6.4 0.00 0.00 0.00 68 1018.7
20260502115044 21 93 0.0 6.4 0.00 0.00 0.00 67 1018.6
20260502114547 21 129 0.0 8.0 0.00 0.00 0.00 69 1018.7
20260502114045 21 0 0.0 8.0 0.00 0.00 0.00 68 1018.8
20260502113544 21 310 1.6 8.0 0.00 0.00 0.00 70 1018.9
20260502113053 21 327 0.0 8.0 0.00 0.00 0.00 69 1018.8
20260502112543 21 308 1.6 8.0 0.00 0.00 0.00 70 1018.9
20260502112044 21 0 0.0 4.8 0.00 0.00 0.00 69 1018.9
20260502111553 21 0 0.0 6.4 0.00 0.00 0.00 69 1018.9
20260502111046 21 0 0.0 9.7 0.00 0.00 0.00 69 1019.0
20260502110546 21 70 1.6 11.3 0.00 0.00 0.00 68 1019.1
20260502110059 21 155 1.6 11.3 0.00 0.00 0.00 68 1019.2
20260502105545 21 0 1.6 11.3 0.00 0.00 0.00 69 1019.2
20260502105044 20 322 0.0 6.4 0.00 0.00 0.00 70 1019.1
20260502104550 20 0 0.0 6.4 0.00 0.00 0.00 69 1019.1
20260502104044 20 0 0.0 6.4 0.00 0.00 0.00 70 1019.1
20260502103545 20 149 1.6 6.4 0.00 0.00 0.00 70 1019.2
20260502103054 20 111 0.0 6.4 0.00 0.00 0.00 70 1019.2
20260502102545 20 312 0.0 9.7 0.00 0.00 0.00 71 1019.3
20260502102047 20 45 1.6 11.3 0.00 0.00 0.00 70 1019.3
20260502101557 20 63 1.6 11.3 0.00 0.00 0.00 71 1019.4
20260502101046 20 52 0.0 6.4 0.00 0.00 0.00 72 1019.3
20260502100546 19 86 0.0 4.8 0.00 0.00 0.00 72 1019.3
20260502091044 16 0 0.0 0.0 0.00 0.00 0.00 75 1019.3
20260502090544 16 0 0.0 0.0 0.00 0.00 0.00 75 1019.3
20260502090113 16 0 0.0 0.0 0.00 0.00 0.00 74 1019.2
20260502071047 13 0 0.0 0.0 0.00 0.00 0.00 72 1019.3
20260502070546 13 0 0.0 0.0 0.00 0.00 0.00 72 1019.4
20260502070110 13 0 0.0 3.2 0.00 0.00 0.00 71 1019.5
20260502065548 13 0 0.0 3.2 0.00 0.00 0.00 69 1019.5
20260502065044 13 0 0.0 0.0 0.00 0.00 0.00 72 1019.6
20260502064605 12 0 0.0 0.0 0.00 0.00 0.00 72 1019.5
20260502064043 12 0 0.0 0.0 0.00 0.00 0.00 71 1019.4
20260502063544 12 0 0.0 1.6 0.00 0.00 0.00 71 1019.4
20260502063053 12 0 0.0 1.6 0.00 0.00 0.00 71 1019.4
20260502062544 12 0 0.0 0.0 0.00 0.00 0.00 70 1019.4
20260502062044 12 0 0.0 1.6 0.00 0.00 0.00 71 1019.4
20260502061553 12 0 0.0 4.8 0.00 0.00 0.00 71 1019.4
20260502061047 12 0 0.0 4.8 0.00 0.00 0.00 72 1019.5
20260502060547 12 0 0.0 1.6 0.00 0.00 0.00 74 1019.6
20260502060053 11 0 0.0 0.0 0.00 0.00 0.00 75 1019.5
20260502055546 11 0 0.0 0.0 0.00 0.00 0.00 75 1019.4
20260502055048 11 0 0.0 0.0 0.00 0.00 0.00 75 1019.3
20260502054559 11 0 0.0 0.0 0.00 0.00 0.00 75 1019.1
20260502054051 11 0 0.0 0.0 0.00 0.00 0.00 75 1019.0
20260502053548 11 0 0.0 0.0 0.00 0.00 0.00 75 1019.0
20260502053054 11 0 0.0 0.0 0.00 0.00 0.00 75 1019.1
20260502052547 10 0 0.0 0.0 0.00 0.00 0.00 76 1019.0
20260502052043 10 0 0.0 0.0 0.00 0.00 0.00 76 1019.2
20260502051553 10 0 0.0 1.6 0.00 0.00 0.00 77 1019.2
20260502051044 10 0 0.0 3.2 0.00 0.00 0.00 76 1019.3
20260502050543 10 0 0.0 3.2 0.00 0.00 0.00 76 1019.2
20260502050051 10 0 0.0 1.6 0.00 0.00 0.00 77 1019.2
20260502045544 9 0 0.0 0.0 0.00 0.00 0.00 77 1019.3
20260502045048 9 0 0.0 0.0 0.00 0.00 0.00 77 1019.4
20260502044554 9 0 0.0 0.0 0.00 0.00 0.00 78 1019.2
20260502044046 9 0 0.0 0.0 0.00 0.00 0.00 78 1019.2
20260502043547 9 0 0.0 0.0 0.00 0.00 0.00 78 1019.2
20260502043050 9 0 0.0 0.0 0.00 0.00 0.00 78 1019.1
20260502042547 9 0 0.0 0.0 0.00 0.00 0.00 77 1019.1
20260502042048 9 0 0.0 0.0 0.00 0.00 0.00 77 1019.1
20260502041559 9 0 0.0 0.0 0.00 0.00 0.00 77 1019.1
20260502041047 9 0 0.0 0.0 0.00 0.00 0.00 77 1019.1
20260502040548 9 0 0.0 0.0 0.00 0.00 0.00 77 1019.1
20260502040058 9 0 0.0 0.0 0.00 0.00 0.00 77 1019.2
20260502035549 9 0 0.0 0.0 0.00 0.00 0.00 77 1019.2
20260502035047 9 0 0.0 0.0 0.00 0.00 0.00 77 1019.3
20260502034556 9 0 0.0 0.0 0.00 0.00 0.00 76 1019.4
20260502034047 9 0 0.0 0.0 0.00 0.00 0.00 75 1019.3
20260502033549 10 0 0.0 0.0 0.00 0.00 0.00 75 1019.4
20260502033108 10 0 0.0 0.0 0.00 0.00 0.00 76 1019.4
20260502032548 10 0 0.0 0.0 0.00 0.00 0.00 75 1019.6
20260502032051 10 0 0.0 0.0 0.00 0.00 0.00 75 1019.5
20260502031601 10 0 0.0 0.0 0.00 0.00 0.00 74 1019.6
20260502031045 10 0 0.0 0.0 0.00 0.00 0.00 74 1019.6
20260502030546 10 0 0.0 0.0 0.00 0.00 0.00 74 1019.6
20260502030058 10 0 0.0 0.0 0.00 0.00 0.00 74 1019.7
20260502025546 10 0 0.0 0.0 0.00 0.00 0.00 73 1019.7
20260502025048 10 0 0.0 0.0 0.00 0.00 0.00 73 1019.7
20260502024607 10 0 0.0 0.0 0.00 0.00 0.00 73 1019.7
20260502024047 10 0 0.0 0.0 0.00 0.00 0.00 72 1019.8
20260502023547 10 0 0.0 0.0 0.00 0.00 0.00 72 1019.8
20260502023108 10 0 0.0 0.0 0.00 0.00 0.00 72 1019.7
20260502022549 10 0 0.0 0.0 0.00 0.00 0.00 71 1019.8
20260502022046 10 0 0.0 0.0 0.00 0.00 0.00 72 1019.9